This demonstration page uses our WeatherBlox Daily Observations layout. Learn more.

Left ArrowRight Arrow

39.08367, -84.50855

Hourly Observations for April 10, 2020

Temp ( °F °C ) Dew Point ( °F °C ) Humidity (%) Winds ( mph kmh ) Pressure ( in mb ) Visibility ( mi km ) Precip ( " mm )
12:53 am 00:53 Mostly Cloudy 40 4.4 33 0.6 77 77 W 14 22 29.86 1011 10 16 0.00 0.00
1:53 am 01:53 Mostly Clear 39 3.9 29 -1.7 67 67 WNW 8 13 29.88 1012 10 16 0.00 0.00
2:53 am 02:53 Partly Cloudy 38 3.3 30 -1.1 73 73 VRB 7 11 29.90 1013 10 16 0.00 0.00
3:53 am 03:53 Partly Cloudy 37 2.8 30 -1.1 76 76 NW 9 15 29.92 1013 10 16 0.00 0.00
4:53 am 04:53 Clear 37 2.8 29 -1.7 73 73 WNW 6 9 29.93 1014 10 16 0.00 0.00
5:53 am 05:53 Clear 36 2.2 28 -2.2 73 73 WNW 6 9 29.96 1015 10 16 0.00 0.00
6:53 am 06:53 Clear 35 1.7 28 -2.2 76 76 W 9 15 29.98 1015 10 16 0.00 0.00
7:53 am 07:53 Sunny 36 2.2 28 -2.2 73 73 W 9 15 30.01 1016 10 16 0.00 0.00
8:53 am 08:53 Mostly Sunny 38 3.3 28 -2.2 68 68 NW 9 15 30.04 1017 10 16 0.00 0.00
9:53 am 09:53 Mostly Sunny 41 5 29 -1.7 62 62 NNW 15 24 30.05 1018 10 16 0.00 0.00
10:53 am 10:53 Partly Cloudy 42 5.6 26 -3.3 53 53 NW 13 20 30.08 1019 10 16 0.00 0.00
11:53 am 11:53 Mostly Cloudy 45 7.2 24 -4.4 44 44 NW 10 17 30.08 1019 10 16 0.00 0.00
12:53 pm 12:53 Mostly Cloudy 46 7.8 24 -4.4 42 42 NW 12 19 30.07 1018 10 16 0.00 0.00
1:53 pm 13:53 Mostly Cloudy 47 8.3 25 -3.9 42 42 NW 10 17 30.06 1018 10 16 0.00 0.00
2:53 pm 14:53 Cloudy 47 8.3 24 -4.4 41 41 W 12 19 30.06 1018 10 16 0.00 0.00
3:53 pm 15:53 Mostly Cloudy 49 9.4 26 -3.3 41 41 WNW 14 22 30.04 1017 10 16 0.00 0.00
4:53 pm 16:53 Partly Cloudy 49 9.4 25 -3.9 39 39 W 15 24 30.04 1017 10 16 0.00 0.00
5:53 pm 17:53 Mostly Cloudy 48 8.9 24 -4.4 39 39 NNW 9 15 30.03 1017 10 16 0.00 0.00
6:53 pm 18:53 Partly Cloudy 50 10 25 -3.9 38 38 NNW 13 20 30.03 1017 10 16 0.00 0.00
7:53 pm 19:53 Sunny 47 8.3 24 -4.4 41 41 NW 5 7 30.02 1017 10 16 0.00 0.00
8:53 pm 20:53 Clear 47 8.3 24 -4.4 41 41 NW 6 9 30.02 1017 10 16 0.00 0.00
9:53 pm 21:53 Clear 39 3.9 31 -0.6 73 73 Calm 30.04 1017 10 16 0.00 0.00
10:53 pm 22:53 Clear 39 3.9 32 0 76 76 Calm 30.04 1017 10 16 0.00 0.00
11:53 pm 23:53 Clear 37 2.8 33 0.6 86 86 Calm 30.03 1017 10 16 0.00 0.00

Powered by AerisWeather